CW3322 Weather Reports


time (UTC)temp
C
wind
direction
speed
KPH
gust
KPH
rain 1hr
cm
rain 24hr
cm
rain mn
cm
humidity
%
barometer
mb
20260510205511 13 0.0 0.0 0.08 2.39 2.39 99 1008.3
20260510204544 13 0.0 0.0 0.10 2.39 2.39 99 1008.3
20260510204017 13 0.0 0.0 0.13 2.39 2.39 99 1008.3
20260510203522 13 0.0 0.0 0.13 2.39 2.39 99 1008.3
20260510203028 13 0.0 0.0 0.15 2.39 2.39 99 1008.8
20260510202520 13 0.0 0.0 0.15 2.39 2.39 99 1009.3
20260510202026 13 0.0 0.0 0.15 2.39 2.39 99 1009.3
20260510201548 13 0.0 0.0 0.13 2.36 2.36 99 1008.8
20260510201112 13 0.0 0.0 0.10 2.34 2.34 99 1008.2
20260510200527 13 0.0 0.0 0.13 2.34 2.34 99 1008.2
20260510200140 13 0.0 0.0 0.10 2.31 2.31 99 1009.2
20260510195526 13 0.0 0.0 0.10 2.31 2.31 99 1009.2
20260510195019 13 0.0 0.0 0.08 2.29 2.29 99 1009.2
20260510194523 13 0.0 0.0 0.08 2.29 2.29 99 1009.2
20260510194225 13 0.0 0.0 0.05 2.26 2.26 99 1008.1
20260510193522 13 0.0 0.0 0.05 2.26 2.26 99 1008.1
20260510193356 13 0.0 0.0 0.03 2.24 2.24 99 1008.1
20260510192519 13 0.0 0.0 0.03 2.24 2.24 99 1008.1
20260510192024 13 0.0 0.0 0.03 2.24 2.24 99 1008.1
20260510191808 13 0.0 0.0 0.03 2.24 2.24 99 1008.1
20260510191022 13 0.0 0.0 0.03 2.24 2.24 99 1008.1
20260510190645 13 0.0 0.0 0.00 2.21 2.21 99 1008.1
20260510190027 13 0.0 0.0 0.00 2.21 2.21 99 1008.1
20260510185526 13 0.0 0.0 0.00 2.21 2.21 99 1008.1
20260510185019 13 0.0 0.0 0.00 2.21 2.21 99 1008.1
20260510184536 13 0.0 0.0 0.00 2.21 2.21 99 1008.1
20260510184030 13 0.0 0.0 0.00 2.21 2.21 99 1008.0
20260510183522 13 0.0 0.0 0.00 2.21 2.21 99 1008.0
20260510183026 13 0.0 0.0 0.00 2.21 2.21 99 1008.0
20260510182519 13 0.0 0.0 0.00 2.21 2.21 99 1008.0
20260510182025 13 0.0 0.0 0.00 2.21 2.21 99 1008.0
20260510181518 13 0.0 0.0 0.00 2.21 2.21 99 1008.0
20260510181022 13 0.0 0.0 0.00 2.21 2.21 99 1007.9
20260510180515 13 0.0 0.0 0.00 2.21 2.21 99 1007.9
20260510180021 14 0.0 0.0 0.00 2.21 2.21 99 1007.9
20260510175526 14 0.0 0.0 0.00 2.21 2.21 99 1007.9
20260510175049 14 0.0 0.0 0.00 2.21 2.21 99 1007.9
20260510174524 13 0.0 0.0 0.00 2.21 2.21 99 1007.9
20260510174046 13 0.0 0.0 2.21 2.21 2.21 99 1007.9
20260510173931 13 0.0 0.0 2.21 2.21 2.21 99 1007.9
20260510173028 13 0.0 0.0 2.21 2.21 2.21 99 1007.9
20260510172609 13 0.0 0.0 2.21 2.21 2.21 99 1007.9
20260510172025 13 0.0 0.0 2.21 2.21 2.21 99 1007.9
20260510171700 13 0.0 0.0 2.21 2.21 2.21 99 1007.9
20260510171023 13 0.0 0.0 2.21 2.21 2.21 99 1007.8
20260510170545 13 0.0 0.0 2.21 2.21 2.21 99 1007.8
20260510170022 13 0.0 0.0 2.21 2.21 2.21 99 1007.8
20260510165525 13 0.0 0.0 2.21 2.21 2.21 99 1007.8
20260510165019 13 0.0 0.0 2.21 2.21 2.21 99 1007.8
20260510164524 13 0.0 0.0 2.21 2.21 2.21 99 1007.8
20260510132023 24 11 0.0 1.6 0.00 0.00 0.00 48 1009.1
20260510130020 24 0.0 0.0 0.00 0.00 0.00 49 1009.5
20260510115055 24 25 3.2 4.8 0.00 0.00 0.00 51 1010.5
20260510112516 23 19 1.6 8.0 0.00 0.00 0.00 52 1010.4
20260510110525 23 89 4.8 8.0 0.00 0.00 0.00 51 1010.5
20260510104518 23 3 1.6 3.2 0.00 0.00 0.00 53 1010.5
20260510104245 23 12 1.6 4.8 0.00 0.00 0.00 51 1010.5
20260510101526 23 355 0.0 1.6 0.00 0.00 0.00 54 1011.5
20260510093027 22 28 1.6 4.8 0.00 0.00 0.00 56 1011.5
20260510090518 21 54 3.2 8.0 0.00 0.00 0.00 58 1011.5
20260510084020 20 28 1.6 8.0 0.00 0.00 0.00 62 1011.4
20260510083526 20 14 0.0 3.2 0.00 0.00 0.00 62 1011.4
20260510083334 19 0.0 0.0 0.00 0.00 0.00 65 1012.4
20260510082525 19 0.0 0.0 0.00 0.00 0.00 65 1012.4
20260510082017 18 356 0.0 1.6 0.00 0.00 0.00 66 1012.4
20260510081536 18 3 0.0 1.6 0.00 0.00 0.00 66 1011.5
20260510081029 18 0.0 0.0 0.00 0.00 0.00 67 1011.3
20260510080552 18 8 0.0 1.6 0.00 0.00 0.00 67 1011.3
20260510080026 18 4 0.0 1.6 0.00 0.00 0.00 67 1012.2
20260510075519 18 0.0 0.0 0.00 0.00 0.00 68 1012.4
20260510075031 17 0.0 0.0 0.00 0.00 0.00 70 1012.3
20260510074517 17 0.0 0.0 0.00 0.00 0.00 71 1012.3
20260510074041 16 24 0.0 3.2 0.00 0.00 0.00 71 1012.3
20260510073557 16 0.0 0.0 0.00 0.00 0.00 71 1012.3
20260510073353 16 350 0.0 0.0 0.00 0.00 0.00 72 1012.3
20260510072525 16 0.0 0.0 0.00 0.00 0.00 73 1012.3
20260510072453 16 0.0 0.0 0.00 0.00 0.00 74 1012.3
20260510071522 16 359 0.0 3.2 0.00 0.00 0.00 74 1012.3
20260510071027 16 0.0 0.0 0.00 0.00 0.00 75 1012.3
20260510070931 15 0.0 0.0 0.00 0.00 0.00 77 1012.3
20260510070024 15 0.0 0.0 0.00 0.00 0.00 78 1012.3
20260510065514 15 0.0 0.0 0.00 0.00 0.00 78 1012.3
20260510064546 15 0.0 0.0 0.00 0.00 0.00 78 1012.3
20260510064048 15 0.0 0.0 0.00 0.00 0.00 80 1012.4
20260510063523 14 0.0 0.0 0.00 0.00 0.00 84 1012.4
20260510063015 13 0.0 0.0 0.00 0.00 0.00 87 1012.4
20260510062520 13 0.0 0.0 0.00 0.00 0.00 88 1012.4
20260510062024 13 0.0 0.0 0.00 0.00 0.00 87 1012.4
20260510061516 13 0.0 0.0 0.00 0.00 0.00 89 1012.6
20260510061034 12 0.0 0.0 0.00 0.00 0.00 92 1013.4
20260510060526 11 0.0 0.0 0.00 0.00 0.00 93 1013.3
20260510060017 11 0.0 0.0 0.00 0.00 0.00 95 1013.3
20260510055521 11 0.0 0.0 0.00 0.00 0.00 96 1013.3
20260510055026 10 0.0 0.0 0.00 0.00 0.00 95 1013.3
20260510054518 10 0.0 0.0 0.00 0.00 0.00 96 1013.3
20260510054052 10 0.0 0.0 0.00 0.00 0.00 96 1013.3
20260510053527 10 0.0 0.0 0.00 0.00 0.00 97 1013.3
20260510053019 10 0.0 0.0 0.00 0.00 0.00 97 1013.3
20260510052523 10 0.0 0.0 0.00 0.00 0.00 98 1013.3
20260510052015 9 0.0 0.0 0.00 0.00 0.00 99 1013.3
20260510051520 9 0.0 0.0 0.00 0.00 0.00 99 1013.2
20260510051024 8 0.0 0.0 0.00 0.00 0.00 99 1013.2
20260510050516 8 0.0 0.0 0.00 0.00 0.00 99 1013.2
20260510050020 8 0.0 0.0 0.00 0.00 0.00 99 1013.2
20260510045655 8 0.0 0.0 0.00 0.00 0.00 99 1013.2
20260510045017 8 0.0 0.0 0.00 0.00 0.00 99 1013.2
20260510044522 8 0.0 0.0 0.00 0.00 0.00 99 1013.2
20260510044027 8 0.0 0.0 0.00 0.00 0.00 99 1013.3
20260510043519 8 0.0 0.0 0.00 0.00 0.00 99 1013.3
20260510043023 8 0.0 0.0 0.00 0.00 0.00 99 1013.3
20260510042516 8 0.0 0.0 0.00 0.00 0.00 99 1012.5
20260510042021 8 0.0 0.0 0.00 0.00 0.00 99 1012.3
20260510041802 8 0.0 0.0 0.00 0.00 0.00 98 1012.3
20260510041018 8 0.0 0.0 0.00 0.00 0.00 97 1012.3
20260510040924 8 0.0 0.0 0.00 0.00 0.00 97 1013.3
20260510040026 8 0.0 0.0 0.00 0.00 0.00 98 1013.3
20260510035518 8 0.0 0.0 0.00 0.00 0.00 97 1013.3
20260510035023 8 0.0 0.0 0.00 0.00 0.00 97 1013.3
20260510034527 8 0.0 0.0 0.00 0.00 0.00 98 1013.3
20260510034019 8 0.0 0.0 0.00 0.00 0.00 97 1013.3
20260510033523 8 0.0 0.0 0.00 0.00 0.00 96 1013.3
20260510033015 8 0.0 0.0 0.00 0.00 0.00 97 1013.3
20260510032520 8 0.0 0.0 0.00 0.00 0.00 97 1013.3
20260510032025 8 0.0 0.0 0.00 0.00 0.00 97 1013.3
20260510031517 8 0.0 0.0 0.00 0.00 0.00 95 1013.3
20260510031021 9 0.0 0.0 0.00 0.00 0.00 95 1013.3
20260510030556 9 0.0 0.0 0.00 0.00 0.00 95 1013.3
20260510030018 9 0.0 0.0 0.00 0.00 0.00 95 1013.3
20260510025523 9 0.0 0.0 0.00 0.00 0.00 95 1013.3
20260510025027 9 0.0 0.0 0.00 0.00 0.00 95 1013.3
20260510024519 9 0.0 0.0 0.00 0.00 0.00 94 1013.3
20260510024024 10 0.0 0.0 0.00 0.00 0.00 93 1013.4
20260510023516 10 0.0 0.0 0.00 0.00 0.00 92 1013.4
20260510023020 10 0.0 0.0 0.00 0.00 0.00 92 1013.4
20260510022525 10 0.0 0.0 0.00 0.00 0.00 92 1013.4
20260510022017 10 0.0 0.0 0.00 0.00 0.00 91 1013.4
20260510021552 10 0.0 0.0 0.00 0.00 0.00 92 1013.4
20260510021026 10 0.0 0.0 0.00 0.00 0.00 90 1013.4
20260510020518 10 0.0 0.0 0.00 0.00 0.00 89 1013.4
20260510020023 11 0.0 0.0 0.00 0.00 0.00 89 1013.5
20260510015615 11 0.0 0.0 0.00 0.00 0.00 89 1013.5
20260510015019 11 0.0 0.0 0.00 0.00 0.00 89 1013.5
20260510014623 11 0.0 0.0 0.00 0.00 0.00 88 1013.5
20260510014015 11 0.0 0.0 0.00 0.00 0.00 87 1013.5
20260510013533 11 0.0 0.0 0.00 0.00 0.00 86 1014.4
20260510013055 12 0.0 0.0 0.00 0.00 0.00 85 1014.5
20260510012547 12 0.0 0.0 0.00 0.00 0.00 85 1014.5
20260510012021 12 329 0.0 0.0 0.00 0.00 0.00 84 1014.5
20260510011525 12 0.0 0.0 0.00 0.00 0.00 82 1014.5
20260510011047 12 0.0 0.0 0.00 0.00 0.00 82 1014.5
20260510010522 12 0.0 0.0 0.00 0.00 0.00 81 1014.5
20260510010026 12 0.0 0.0 0.00 0.00 0.00 80 1014.5
20260510005518 12 343 0.0 1.6 0.00 0.00 0.00 80 1014.5
20260510005023 12 0.0 0.0 0.00 0.00 0.00 80 1014.5
20260510004527 12 0.0 0.0 0.00 0.00 0.00 80 1014.5
20260510004018 12 0.0 0.0 0.00 0.00 0.00 80 1014.5
20260510003523 12 0.0 0.0 0.00 0.00 0.00 82 1014.4
20260510003015 12 0.0 0.0 0.00 0.00 0.00 83 1014.4
20260510002519 12 0.0 0.0 0.00 0.00 0.00 83 1014.4
20260510002355 12 0.0 0.0 0.00 0.00 0.00 84 1014.4
20260510001516 12 0.0 0.0 0.00 0.00 0.00 85 1014.4
20260510001450 12 0.0 0.0 0.00 0.00 0.00 85 1014.4
20260510000525 12 0.0 0.0 0.00 0.00 0.00 86 1014.4
20260510000017 12 0.0 0.0 0.00 0.00 0.00 86 1014.4
20260509235522 12 0.0 0.0 0.00 0.00 0.00 85 1014.4
20260509235026 12 0.0 0.0 0.00 0.00 0.00 85 1014.8
20260509234518 12 0.0 0.0 0.00 0.00 0.00 86 1015.4
20260509234023 12 332 0.0 1.6 0.00 0.00 0.00 85 1015.4
20260509233527 12 335 0.0 3.2 0.00 0.00 0.00 84 1015.4
20260509233019 12 0.0 0.0 0.00 0.00 0.00 85 1015.4
20260509232523 12 0.0 0.0 0.00 0.00 0.00 84 1015.4
20260509232016 12 0.0 0.0 0.00 0.00 0.00 84 1015.2
20260509231550 12 0.0 0.0 0.00 0.00 0.00 85 1014.4
20260509231025 12 0.0 0.0 0.00 0.00 0.00 84 1014.4
20260509230517 12 0.0 0.0 0.00 0.00 0.00 84 1014.4
20260509230021 12 0.0 0.0 0.00 0.00 0.00 84 1014.4
20260509225526 12 0.0 0.0 0.00 0.00 0.00 82 1014.4
20260509225018 12 0.0 0.0 0.00 0.00 0.00 82 1014.9
20260509224522 13 0.0 0.0 0.00 0.00 0.00 81 1015.4
20260509224027 13 0.0 0.0 0.00 0.00 0.00 82 1015.4
20260509223549 13 0.0 0.0 0.00 0.00 0.00 81 1015.4
20260509223023 13 0.0 0.0 0.00 0.00 0.00 80 1015.4
20260509222515 13 0.0 0.0 0.00 0.00 0.00 79 1015.4
20260509222020 13 0.0 0.0 0.00 0.00 0.00 80 1015.4
20260509221524 13 0.0 0.0 0.00 0.00 0.00 80 1015.4
20260509221016 13 0.0 0.0 0.00 0.00 0.00 80 1015.4
20260509220521 13 0.0 0.0 0.00 0.00 0.00 80 1015.4
20260509220026 13 0.0 0.0 0.00 0.00 0.00 80 1015.4
20260509215517 13 0.0 0.0 0.00 0.00 0.00 79 1015.4
20260509215022 13 0.0 0.0 0.00 0.00 0.00 78 1015.4
20260509214526 14 0.0 0.0 0.00 0.00 0.00 78 1015.4
20260509214019 14 0.0 0.0 0.00 0.00 0.00 77 1015.4
20260509213523 14 0.0 0.0 0.00 0.00 0.00 75 1015.4
20260509213115 15 0.0 0.0 0.00 0.00 0.00 74 1015.4
20260509212520 15 0.0 0.0 0.00 0.00 0.00 74 1015.4
20260509212025 15 0.0 0.0 0.00 0.00 0.00 73 1015.4